Weather History for Sanford, ME

Change the Weather History Date:

Saturday, December 14, 2013

  Actual Average Record
Temperature  
Mean Temperature 4 °F -  
Max Temperature 12 °F 36 °F 55 °F (2006)
Min Temperature -5 °F 19 °F -7 °F (2005)
Degree Days  
Heating Degree Days 62    
Moisture  
Dew Point -6 °F    
Average Humidity 63    
Maximum Humidity 100    
Minimum Humidity 29    
Precipitation  
Precipitation 0.00 in - - ()
Sea Level Pressure  
Sea Level Pressure 30.49 in    
Wind  
Wind Speed 3 mph (NNE)    
Max Wind Speed 17 mph    
Max Gust Speed 21 mph    
Visibility 8 miles    
Events      
Averages and records for this station are not official NWS values.
T = Trace of Precipitation, MM = Missing Value Source: NWS Daily Summary

Daily Weather History Graph

Daily Weather History Graph

Search for Another Location

Airport:

Trip Planner

Search our weather history database for the weather conditions in past years. The results will help you decide how hot, cold, wet, or windy it might be!

Date:

Astronomy

Dec. 14, 2013 Rise Set
Actual Time 7:07 AM EST 4:07 PM EST
Civil Twilight 6:35 AM EST 4:39 PM EST
Nautical Twilight 5:59 AM EST 5:16 PM EST
Astronomical Twilight 5:24 AM EST 5:50 PM EST
Moon 2:29 PM EST (12/14) 4:22 AM EST (12/14)
Length of Visible Light 10h 04m
Length of Day
8h 59m
Waxing Gibbous, 93% of the Moon is Illuminated
Dec 14
Waxing Gibbous
Dec 17
Full
Dec 25
Last Quarter
Jan 1
New
Jan 7
First Quarter

Hourly Weather History & Observations

Time (EST) Temp. Windchill Dew Point Humidity Pressure Visibility Wind Dir Wind Speed Gust Speed Precip Events Conditions
12:15 AM -0.4 °F - -11.2 °F 60% 30.38 in 10.0 mi Calm Calm - N/A   Clear
12:35 AM -5.8 °F -14.5 °F -14.8 °F 65% 30.39 in 10.0 mi SW 3.5 mph - N/A   Clear
12:55 AM -2.2 °F -10.4 °F -2.2 °F 100% 30.40 in 10.0 mi WSW 3.5 mph - N/A   Clear
1:15 AM -5.8 °F - -14.8 °F 65% 30.40 in 10.0 mi Calm Calm - N/A   Clear
1:35 AM -5.8 °F - -11.2 °F 77% 30.41 in 10.0 mi Calm Calm - N/A   Clear
1:55 AM -5.8 °F - -9.4 °F 84% 30.41 in 10.0 mi Calm Calm - N/A   Clear
2:15 AM -5.8 °F - -11.2 °F 77% 30.42 in 10.0 mi Calm Calm - N/A   Clear
2:35 AM -0.4 °F -12.0 °F -2.2 °F 92% 30.43 in 10.0 mi North 5.8 mph - N/A   Clear
2:55 AM 1.4 °F -6.2 °F -13.0 °F 51% 30.42 in 10.0 mi North 3.5 mph - N/A   Clear
3:15 AM -4.0 °F - -11.2 °F 71% 30.43 in 10.0 mi Calm Calm - N/A   Clear
3:35 AM -2.2 °F - -9.4 °F 71% 30.43 in 10.0 mi Calm Calm - N/A   Clear
3:55 AM -2.2 °F - -9.4 °F 71% 30.44 in 10.0 mi Calm Calm - N/A   Clear
4:15 AM -2.2 °F - -9.4 °F 71% 30.45 in 10.0 mi Calm Calm - N/A   Clear
4:35 AM -2.2 °F - -9.4 °F 71% 30.46 in 10.0 mi Calm Calm - N/A   Clear
4:55 AM -2.2 °F -10.4 °F -9.4 °F 71% 30.47 in 10.0 mi SW 3.5 mph - N/A   Clear
5:15 AM -2.2 °F -10.4 °F -5.8 °F 85% 30.48 in 10.0 mi West 3.5 mph - N/A   Clear
5:35 AM -2.2 °F - -9.4 °F 71% 30.49 in 10.0 mi Calm Calm - N/A   Clear
5:55 AM -0.4 °F - -2.2 °F 92% 30.50 in 10.0 mi Calm Calm - N/A   Clear
6:15 AM -0.4 °F - -11.2 °F 60% 30.52 in 10.0 mi Calm Calm - N/A   Clear
6:35 AM -0.4 °F - -7.6 °F 72% 30.53 in 10.0 mi Calm Calm - N/A   Clear
6:55 AM -2.2 °F - -9.4 °F 71% 30.53 in 10.0 mi Calm Calm - N/A   Clear
7:15 AM -2.2 °F - -14.8 °F 55% 30.53 in 10.0 mi Calm Calm - N/A   Clear
7:35 AM -2.2 °F -10.4 °F -11.2 °F 66% 30.53 in 10.0 mi North 3.5 mph - N/A   Clear
7:55 AM -4.0 °F -12.4 °F -9.4 °F 78% 30.54 in 10.0 mi North 3.5 mph - N/A   Clear
8:15 AM -2.2 °F - -14.8 °F 55% 30.55 in 10.0 mi Calm Calm - N/A   Clear
8:35 AM -0.4 °F - -2.2 °F 92% 30.56 in 10.0 mi Calm Calm - N/A   Clear
8:55 AM 3.2 °F - -5.8 °F 66% 30.58 in 10.0 mi Calm Calm - N/A   Clear
9:15 AM 3.2 °F -4.2 °F -14.8 °F 43% 30.58 in 10.0 mi North 3.5 mph - N/A   Clear
9:35 AM 3.2 °F - -7.6 °F 61% 30.59 in 10.0 mi Calm Calm - N/A   Clear
9:55 AM 5.0 °F - -11.2 °F 47% 30.59 in 10.0 mi Calm Calm - N/A   Clear
10:15 AM 5.0 °F - -9.4 °F 52% 30.59 in 10.0 mi Calm Calm - N/A   Clear
10:35 AM 6.8 °F - -9.4 °F 48% 30.60 in 10.0 mi Calm Calm - N/A   Clear
10:55 AM 6.8 °F - -11.2 °F 44% 30.60 in 10.0 mi Calm Calm - N/A   Clear
11:15 AM 6.8 °F - -9.4 °F 48% 30.60 in 10.0 mi Calm Calm - N/A   Clear
11:35 AM 8.6 °F - -11.2 °F 40% 30.59 in 10.0 mi Calm Calm - N/A   Clear
11:55 AM 8.6 °F - -11.2 °F 40% 30.58 in 10.0 mi Calm Calm - N/A   Clear
12:15 PM 8.6 °F 0.1 °F -9.4 °F 44% 30.58 in 10.0 mi ENE 4.6 mph - N/A   Clear
12:35 PM 10.4 °F 4.0 °F -9.4 °F 41% 30.58 in 10.0 mi NNE 3.5 mph - N/A   Clear
12:55 PM 10.4 °F 4.0 °F -9.4 °F 41% 30.57 in 10.0 mi NE 3.5 mph - N/A   Clear
1:15 PM 10.4 °F 0.8 °F -11.2 °F 37% 30.57 in 10.0 mi ENE 5.8 mph - N/A   Clear
1:35 PM 10.4 °F 2.2 °F -11.2 °F 37% 30.57 in 10.0 mi NE 4.6 mph - N/A   Clear
1:55 PM 10.4 °F 4.0 °F -9.4 °F 41% 30.56 in 10.0 mi ENE 3.5 mph - N/A   Clear
2:15 PM 12.2 °F 4.3 °F -7.6 °F 41% 30.56 in 10.0 mi ENE 4.6 mph - N/A   Clear
2:35 PM 12.2 °F 4.3 °F -9.4 °F 38% 30.55 in 10.0 mi NE 4.6 mph - N/A   Clear
2:55 PM 12.2 °F 4.3 °F -7.6 °F 41% 30.55 in 10.0 mi NE 4.6 mph - N/A   Clear
3:15 PM 12.2 °F 2.9 °F -5.8 °F 45% 30.56 in 10.0 mi NE 5.8 mph - N/A   Clear
3:35 PM 12.2 °F 0.7 °F -5.8 °F 45% 30.55 in 10.0 mi NE 8.1 mph - N/A   Clear
3:55 PM 12.2 °F 0.7 °F -7.6 °F 41% 30.55 in 10.0 mi NE 8.1 mph - N/A   Clear
4:15 PM 12.2 °F -0.2 °F - N/A% 30.53 in 10.0 mi NE 9.2 mph - N/A   Partly Cloudy
4:35 PM 12.2 °F 0.7 °F -14.8 °F 29% 30.54 in 10.0 mi NNE 8.1 mph - N/A   Mostly Cloudy
4:55 PM 12.2 °F 0.7 °F -0.4 °F 57% 30.53 in 10.0 mi NNE 8.1 mph - N/A   Scattered Clouds
5:15 PM 10.4 °F -2.4 °F -2.2 °F 57% 30.51 in 10.0 mi NNE 9.2 mph - N/A   Mostly Cloudy
5:35 PM 10.4 °F -3.3 °F -4.0 °F 52% 30.50 in 10.0 mi NE 10.4 mph - N/A   Overcast
5:55 PM 10.4 °F -1.5 °F -2.2 °F 57% 30.50 in 10.0 mi NE 8.1 mph - N/A   Overcast
6:15 PM 12.2 °F 1.7 °F -2.2 °F 53% 30.50 in 10.0 mi NNE 6.9 mph - N/A   Overcast
6:35 PM 10.4 °F -3.3 °F -0.4 °F 62% 30.47 in 5.0 mi NNE 10.4 mph - N/A   Overcast
6:55 PM 10.4 °F -2.4 °F -0.4 °F 62% 30.46 in 4.0 mi NNE 9.2 mph - N/A   Overcast
7:15 PM 10.4 °F -1.5 °F 3.2 °F 73% 30.46 in 4.0 mi NNE 8.1 mph - N/A   Overcast
7:35 PM 10.4 °F -3.3 °F 1.4 °F 67% 30.47 in 4.0 mi NNE 10.4 mph - N/A   Overcast
7:55 PM 10.4 °F -3.3 °F 5.0 °F 79% 30.46 in 2.5 mi NNE 10.4 mph - N/A   Overcast
8:15 PM 10.4 °F -4.1 °F 3.2 °F 73% 30.45 in 2.0 mi NNE 11.5 mph - N/A   Overcast
8:35 PM 10.4 °F -5.4 °F 6.8 °F 85% 30.41 in 2.0 mi NNE 13.8 mph - N/A   Overcast
8:55 PM 10.4 °F -4.1 °F 1.4 °F 67% 30.41 in 1.2 mi NNE 11.5 mph - N/A   Overcast
9:15 PM 10.4 °F -5.4 °F 6.8 °F 85% 30.39 in 1.5 mi NNE 13.8 mph - N/A   Overcast
9:35 PM 10.4 °F -5.4 °F 3.2 °F 73% 30.38 in 2.5 mi NNE 13.8 mph - N/A   Overcast
9:55 PM 10.4 °F -5.4 °F 6.8 °F 85% 30.37 in 3.0 mi NNE 13.8 mph - N/A   Overcast
10:15 PM 10.4 °F -5.4 °F 3.2 °F 73% 30.36 in 1.8 mi NNE 13.8 mph - N/A   Overcast
10:35 PM 10.4 °F -4.1 °F 3.2 °F 73% 30.37 in 1.5 mi NNE 11.5 mph - N/A   Overcast
10:55 PM 10.4 °F -4.8 °F 6.8 °F 85% 30.35 in 1.0 mi NNE 12.7 mph - N/A   Overcast
11:15 PM 10.4 °F -4.8 °F 5.0 °F 79% 30.33 in 1.5 mi NNE 12.7 mph - N/A   Overcast
11:35 PM 10.4 °F -7.2 °F 8.6 °F 92% 30.31 in 2.5 mi NNE 17.3 mph 20.7 mph N/A   Overcast
11:55 PM 10.4 °F -5.4 °F 1.4 °F 67% 30.29 in 1.8 mi NNE 13.8 mph - N/A   Overcast